Date String (YYYY-MM-DD hh:mm:ss) UTC,Instrument flags,absolute air pressure of the measurement (hPa),sample flow rate (lpm),inlet stack bypass flow (lpm),air temperature of the measurement (°C),ambient temperature measured by the external sensor (°C),aerosol sample conditioner tube jacket temperature (°C),OPC LED temperature (°C),internal box temperature (°C),relative humidity of the measurement (%),span deviation,mass concentration of particles derived from Lorenz-Mie calculation of OPC scattering (μg/m³),mass concentration of particles derived from Lorenz-Mie calculation of OPC scattering (μg/m³),mass concentration of particles derived from Lorenz-Mie calculation of OPC scattering (μg/m³)
DateTimeUTC,F1_M11,P_M11,Q1_M11,Q2_M11,T1_M11,T2_M11,T3_M11,T4_M11,T5_M11,U1_M11,ZSPAN_M11,X0_M11,X2_M11,X1_M11
2023-10-28 05:00:00,SystemResetWarning,0831.3,5.01,000.00,023.0,021.5,000.0,031.4,024.5,14.4,0000.0,0011.69,0004.82,0004.26
2023-10-28 05:01:00,SystemResetWarning,0831.3,4.99,000.00,023.0,021.5,000.0,031.4,024.5,14.5,0000.0,0011.84,0004.81,0004.25
2023-10-28 05:02:00,SystemResetWarning,0831.3,4.99,000.00,023.0,021.5,000.0,031.4,024.5,14.4,0000.0,0011.84,0004.82,0004.24
2023-10-28 05:03:00,SystemResetWarning,0831.3,5.00,000.00,023.0,021.5,000.0,031.4,024.5,14.4,0000.0,0011.69,0004.85,0004.24
2023-10-28 05:04:00,SystemResetWarning,0831.3,5.01,000.00,022.9,021.4,000.0,031.3,024.5,14.4,0000.0,0011.72,0004.84,0004.25
2023-10-28 05:05:00,SystemResetWarning,0831.3,5.01,000.00,022.9,021.4,000.0,031.3,024.4,14.4,0000.0,0011.39,0004.84,0004.27
2023-10-28 05:06:00,SystemResetWarning,0831.2,5.00,000.00,022.9,021.4,000.0,031.3,024.4,14.4,0000.0,0011.62,0004.80,0004.28
2023-10-28 05:07:00,SystemResetWarning,0831.3,5.00,000.00,022.9,021.4,000.0,031.3,024.4,14.5,0000.0,0010.83,0004.81,0004.29
2023-10-28 05:08:00,SystemResetWarning,0831.3,5.00,000.00,022.9,021.4,000.0,031.3,024.4,14.6,0000.0,0010.73,0004.81,0004.29
2023-10-28 05:09:00,SystemResetWarning,0831.3,5.00,000.00,022.9,021.4,000.0,031.3,024.4,14.5,0000.0,0010.36,0004.79,0004.29
2023-10-28 05:10:00,SystemResetWarning,0831.3,5.00,000.00,022.9,021.4,000.0,031.3,024.4,14.5,0000.0,0010.18,0004.76,0004.29
2023-10-28 05:11:00,SystemResetWarning,0831.3,5.00,000.00,022.8,021.4,000.0,031.3,024.4,14.4,0000.0,0010.30,0004.76,0004.30
2023-10-28 05:12:00,SystemResetWarning,0831.3,5.00,000.00,022.8,021.4,000.0,031.3,024.3,14.2,0000.0,0010.43,0004.78,0004.33
2023-10-28 05:13:00,SystemResetWarning,0831.3,5.00,000.00,022.8,021.3,000.0,031.3,024.3,14.3,0000.0,0010.28,0004.79,0004.35
2023-10-28 05:14:00,SystemResetWarning,0831.3,5.01,000.00,022.8,021.3,000.0,031.3,024.3,14.2,0000.0,0010.14,0004.83,0004.39
2023-10-28 05:15:00,SystemResetWarning,0831.3,5.01,000.00,022.8,021.3,000.0,031.3,024.3,14.2,0000.0,0010.14,0004.84,0004.42
2023-10-28 05:16:00,SystemResetWarning,0831.3,5.00,000.00,022.8,021.3,000.0,031.2,024.3,14.3,0000.0,0010.03,0004.84,0004.44
2023-10-28 05:17:00,SystemResetWarning,0831.3,4.99,000.00,022.8,021.3,000.0,031.2,024.3,14.2,0000.0,0009.80,0004.90,0004.47
2023-10-28 05:18:00,SystemResetWarning,0831.3,4.99,000.00,022.8,021.3,000.0,031.2,024.3,14.2,0000.0,0009.81,0004.95,0004.50
2023-10-28 05:19:00,SystemResetWarning,0831.3,5.01,000.00,022.8,021.3,000.0,031.2,024.3,14.2,0000.0,0009.96,0005.02,0004.54
2023-10-28 05:20:00,SystemResetWarning,0831.3,5.01,000.00,022.8,021.3,000.0,031.2,024.3,14.1,0000.0,0010.06,0005.10,0004.58
2023-10-28 05:21:00,SystemResetWarning,0831.3,5.01,000.00,022.8,021.3,000.0,031.2,024.3,14.1,0000.0,0009.80,0005.17,0004.64
2023-10-28 05:22:00,SystemResetWarning,0831.4,4.99,000.00,022.8,021.3,000.0,031.2,024.3,14.1,0000.0,0009.71,0005.21,0004.69
2023-10-28 05:23:00,SystemResetWarning,0831.4,5.00,000.00,022.8,021.3,000.0,031.2,024.3,14.1,0000.0,0009.73,0005.25,0004.72
2023-10-28 05:24:00,SystemResetWarning,0831.3,5.01,000.00,022.8,021.3,000.0,031.2,024.3,14.1,0000.0,0010.93,0005.30,0004.76
2023-10-28 05:25:00,SystemResetWarning,0831.3,5.01,000.00,022.8,021.3,000.0,031.2,024.3,14.1,0000.0,0012.02,0005.31,0004.80
2023-10-28 05:26:00,SystemResetWarning,0831.3,5.00,000.00,022.8,021.3,000.0,031.2,024.3,14.0,0000.0,0012.99,0005.39,0004.81
2023-10-28 05:27:00,SystemResetWarning,0831.3,5.00,000.00,022.8,021.3,000.0,031.2,024.3,14.0,0000.0,0013.38,0005.47,0004.84
2023-10-28 05:28:00,SystemResetWarning,0831.3,4.99,000.00,022.8,021.3,000.0,031.2,024.3,13.9,0000.0,0013.65,0005.51,0004.88
2023-10-28 05:29:00,SystemResetWarning,0831.4,4.99,000.00,022.8,021.4,000.0,031.1,024.4,13.9,0000.0,0014.53,0005.53,0004.91
2023-10-28 05:30:00,SystemResetWarning,0831.4,5.00,000.00,022.8,021.4,000.0,031.1,024.4,13.8,0000.0,0015.60,0005.55,0004.94
2023-10-28 05:31:00,SystemResetWarning,0831.4,5.01,000.00,022.8,021.4,000.0,031.1,024.4,13.8,0000.0,0015.74,0005.60,0004.97
2023-10-28 05:32:00,SystemResetWarning,0831.3,5.02,000.00,022.8,021.4,000.0,031.1,024.4,13.7,0000.0,0016.05,0005.62,0004.98
2023-10-28 05:33:00,SystemResetWarning,0831.3,4.99,000.00,022.8,021.4,000.0,031.1,024.4,13.6,0000.0,0015.68,0005.64,0004.99
2023-10-28 05:34:00,SystemResetWarning,0831.3,4.99,000.00,022.8,021.4,000.0,031.1,024.4,13.6,0000.0,0015.64,0005.69,0005.00
2023-10-28 05:35:00,SystemResetWarning,0831.3,4.99,000.00,022.8,021.4,000.0,031.1,024.4,13.6,-000.2,0015.19,0005.72,0005.02
2023-10-28 05:36:00,SystemResetWarning,0831.3,5.00,000.00,022.8,021.4,000.0,031.1,024.4,13.6,-000.2,0014.93,0005.76,0005.04
2023-10-28 05:37:00,SystemResetWarning,0831.3,5.00,000.00,022.8,021.4,000.0,031.1,024.4,13.6,0000.0,0013.59,0005.81,0005.09
2023-10-28 05:38:00,SystemResetWarning,0831.3,5.00,000.00,022.8,021.4,000.0,031.1,024.4,13.5,0000.2,0012.85,0005.81,0005.13
2023-10-28 05:39:00,SystemResetWarning,0831.3,5.00,000.00,022.8,021.4,000.0,031.1,024.4,13.5,0000.5,0012.96,0005.86,0005.18
2023-10-28 05:40:00,SystemResetWarning,0831.3,5.00,000.00,022.8,021.4,000.0,031.1,024.4,13.4,-000.4,0012.52,0005.94,0005.22
2023-10-28 05:41:00,SystemResetWarning,0831.3,5.00,000.00,022.8,021.4,000.0,031.1,024.4,13.4,-001.2,0011.35,0006.00,0005.25
2023-10-28 05:42:00,SystemResetWarning,0831.3,5.01,000.00,022.8,021.4,000.0,031.1,024.4,13.5,-000.9,0011.50,0006.03,0005.27
2023-10-28 05:43:00,SystemResetWarning,0831.3,4.99,000.00,022.8,021.4,000.0,031.1,024.3,13.3,-000.2,0012.05,0006.08,0005.29
2023-10-28 05:44:00,SystemResetWarning,0831.3,5.01,000.00,022.8,021.4,000.0,031.1,024.4,13.0,0000.1,0013.55,0006.12,0005.32
2023-10-28 05:45:00,SystemResetWarning,0831.3,5.00,000.00,022.8,021.3,000.0,031.1,024.3,12.8,0000.2,0013.81,0006.15,0005.36
2023-10-28 05:46:00,SystemResetWarning,0831.3,5.00,000.00,022.8,021.3,000.0,031.1,024.4,12.8,0000.8,0014.18,0006.18,0005.40
2023-10-28 05:47:00,SystemResetWarning,0831.3,5.00,000.00,022.8,021.3,000.0,031.1,024.4,12.8,0001.5,0013.58,0006.21,0005.43
2023-10-28 05:48:00,SystemResetWarning,0831.3,5.01,000.00,022.8,021.3,000.0,031.1,024.4,12.6,0001.8,0013.79,0006.25,0005.46
2023-10-28 05:49:00,SystemResetWarning,0831.3,5.00,000.00,022.8,021.3,000.0,031.1,024.3,12.6,0001.1,0014.41,0006.30,0005.47
2023-10-28 05:50:00,SystemResetWarning,0831.2,5.00,000.00,022.8,021.3,000.0,031.1,024.3,12.5,0001.2,0014.22,0006.35,0005.48
2023-10-28 05:51:00,SystemResetWarning,0831.1,5.00,000.00,022.8,021.3,000.0,031.1,024.3,12.5,0002.5,0014.32,0006.36,0005.50
2023-10-28 05:52:00,SystemResetWarning,0831.1,5.00,000.00,022.8,021.3,000.0,031.1,024.4,12.4,0002.5,0014.59,0006.38,0005.53
2023-10-28 05:53:00,SystemResetWarning,0831.1,5.00,000.00,022.8,021.3,000.0,031.1,024.3,12.4,0002.8,0015.05,0006.42,0005.58
2023-10-28 05:54:00,SystemResetWarning,0831.2,5.00,000.00,022.8,021.3,000.0,031.1,024.3,12.5,0002.4,0015.36,0006.42,0005.63
2023-10-28 05:55:00,SystemResetWarning,0831.2,5.00,000.00,022.8,021.3,000.0,031.1,024.4,12.5,0002.4,0013.83,0006.44,0005.67
2023-10-28 05:56:00,SystemResetWarning,0831.2,5.00,000.00,022.8,021.3,000.0,031.1,024.3,12.6,0002.8,0014.02,0006.47,0005.71
2023-10-28 05:57:00,SystemResetWarning,0831.1,5.00,000.00,022.8,021.3,000.0,031.1,024.4,12.7,0002.4,0014.19,0006.51,0005.75
2023-10-28 05:58:00,SystemResetWarning,0831.1,5.00,000.00,022.8,021.3,000.0,031.1,024.4,12.7,0002.3,0014.14,0006.52,0005.78
2023-10-28 05:59:00,SystemResetWarning,0831.1,5.00,000.00,022.8,021.3,000.0,031.1,024.4,12.7,0001.9,0014.16,0006.54,0005.79
